Flight Track Log - Related Links

Times and Time Zones

All times are in EDT time to prevent confusion due to time zone crossing. See the N27XP flight status page for this flight to view local times or setup timezone preferences in your user account.

Time Position Orientation Groundspeed Altitude Reporting Facility
EDT Latitude Longitude Course Direction KTS MPH feet Rate Location/Type
Fri 01:22:05 PM 40.7500 -74.4333 162° South 165 190 2,700  Level New York TRACON
Fri 01:23:05 PM 40.7000 -74.4333 180° South 197 227 4,100 1,600 Climbing New York TRACON
Fri 01:24:05 PM 40.6500 -74.3667 135° Southeast 242 278 5,900 1,000 Climbing New York TRACON
Fri 01:24:59 PM 40.6167 -74.3333 143° Southeast 238 274 6,000 50 Climbing New York TRACON
Fri 01:26:05 PM 40.5500 -74.3000 159° South 227 261 6,000  Level New York TRACON
Fri 01:27:00 PM 40.4316 -74.7748 162° South  Level Estimated
Fri 01:27:05 PM 40.4833 -74.2667 159° South 223 257 6,000  Level New York TRACON
Fri 01:29:14 PM 40.3739 -74.2172 161° South 210 242 10,900 2,208 Climbing New York Center
Fri 01:30:56 PM 40.2639 -74.2267 184° South 224 258 14,500 2,259 Climbing Washington Center
Fri 01:31:56 PM 40.1933 -74.2336 184° South 240 276 17,000 2,182 Climbing Washington Center
Fri 01:32:57 PM 40.1225 -74.2403 184° South 252 290 18,900 1,770 Climbing Washington Center
Fri 01:33:58 PM 40.0475 -74.2472 184° South 257 296 20,600 1,850 Climbing Washington Center
Fri 01:34:57 PM 39.9750 -74.2811 200° South 271 312 22,600 1,966 Climbing Washington Center
Fri 01:35:57 PM 39.9111 -74.3444 217° Southwest 280 322 24,500 1,686 Climbing Washington Center
Fri 01:36:58 PM 39.8453 -74.4078 216° Southwest 290 334 26,000 1,513 Climbing Washington Center
Fri 01:37:56 PM 39.7833 -74.4764 220° Southwest 300 345 27,500 1,475 Climbing Washington Center
Fri 01:38:56 PM 39.7256 -74.5556 227° Southwest 300 345 28,900 1,450 Climbing Washington Center
Fri 01:39:56 PM 39.6658 -74.6319 225° Southwest 300 345 30,400 1,388 Climbing Washington Center
Fri 01:40:57 PM 39.6061 -74.7081 224° Southwest 300 345 31,700 1,230 Climbing Washington Center
Fri 01:41:58 PM 39.5483 -74.7869 226° Southwest 305 351 32,900 1,109 Climbing Washington Center
Fri 01:42:56 PM 39.4842 -74.8736 226° Southwest 305 351 33,900 1,100 Climbing Washington Center
Fri 01:43:58 PM 39.4222 -74.9547 225° Southwest 305 351 35,100 1,082 Climbing Washington Center
Fri 01:44:58 PM 39.3622 -75.0306 224° Southwest 300 345 36,100 966 Climbing Washington Center
Fri 01:45:56 PM 39.3019 -75.1061 224° Southwest 305 351 37,000 908 Climbing Washington Center
Fri 01:46:57 PM 39.2231 -75.1442 200° South 305 351 37,900 492 Climbing Washington Center
Fri 01:47:58 PM 39.1419 -75.1822 200° South 299 344 38,000 50 Climbing Washington Center
Fri 01:48:58 PM 39.0586 -75.2175 198° South 311 358 38,000  Level Washington Center
Fri 01:49:58 PM 38.9692 -75.2525 197° South 328 377 38,000 -50 Level Washington Center
Fri 01:50:57 PM 38.8794 -75.2931 199° South 334 384 37,900  Descending Washington Center
Fri 01:51:58 PM 38.7983 -75.3600 213° Southwest 339 390 38,000 50 Climbing Washington Center
Fri 01:52:56 PM 38.7150 -75.4267 212° Southwest 352 405 38,000  Level Washington Center
Fri 01:53:57 PM 38.6339 -75.4933 213° Southwest 357 411 38,000 -50 Level Washington Center
Fri 01:54:56 PM 38.5525 -75.5597 213° Southwest 357 411 37,900  Descending Washington Center
Fri 01:55:57 PM 38.4714 -75.6289 214° Southwest 357 411 38,000 50 Climbing Washington Center
Fri 01:56:57 PM 38.3878 -75.6897 210° Southwest 357 411 38,000  Level Washington Center
Fri 01:57:58 PM 38.3086 -75.7583 214° Southwest 357 411 38,000  Level Washington Center
Fri 01:58:56 PM 38.2250 -75.8217 211° Southwest 357 411 38,000  Level Washington Center
Fri 01:59:56 PM 38.1436 -75.8847 211° Southwest 352 405 38,000 -99 Level Washington Center
Fri 02:00:57 PM 38.0619 -75.9531 213° Southwest 352 405 37,800 -1,033 Descending Washington Center
Fri 02:01:58 PM 37.9742 -76.0211 211° Southwest 357 411 35,900 -1,866 Descending Washington Center
Fri 02:02:56 PM 37.8947 -76.0864 213° Southwest 357 411 34,100 -1,866 Descending Washington Center
Fri 02:03:57 PM 37.8236 -76.1675 222° Southwest 357 411 32,200 -1,934 Descending Washington Center
Fri 02:04:57 PM 37.7500 -76.2536 223° Southwest 357 411 30,200 -1,983 Descending Washington Center
Fri 02:05:58 PM 37.6725 -76.3422 222° Southwest 367 422 28,200 -2,033 Descending Washington Center
Fri 02:06:58 PM 37.5883 -76.4225 217° Southwest 379 436 26,100 -2,085 Descending Washington Center
Fri 02:07:56 PM 37.4942 -76.4869 209° Southwest 384 442 24,100 -1,068 Descending Washington Center
Fri 02:08:56 PM 37.4019 -76.5514 209° Southwest 384 442 24,000 -50 Descending Washington Center
Fri 02:09:57 PM 37.3136 -76.6103 208° Southwest 378 435 24,000  Level Washington Center
Fri 02:10:58 PM 37.2236 -76.6717 209° Southwest 373 429 24,000  Level Washington Center
Fri 02:11:56 PM 37.1311 -76.7328 208° Southwest 373 429 24,000  Level Washington Center
Fri 02:12:57 PM 37.0431 -76.7914 208° Southwest 373 429 24,000 -492 Level Washington Center
Fri 02:13:58 PM 36.9506 -76.8550 209° Southwest 373 429 23,000 -1,008 Descending Washington Center
Fri 02:14:56 PM 36.8661 -76.9342 217° Southwest 373 429 22,000 -508 Descending Washington Center
Fri 02:15:56 PM 36.8067 -77.0419 235° Southwest 373 429 22,000  Level Washington Center
Fri 02:16:57 PM 36.7511 -77.1500 237° Southwest 378 435 22,000  Level Washington Center
Fri 02:17:58 PM 36.6933 -77.2575 236° Southwest 378 435 22,000  Level Washington Center
Fri 02:18:57 PM 36.6394 -77.3625 237° Southwest 373 429 22,000  Level Washington Center
Fri 02:19:57 PM 36.5817 -77.4725 237° Southwest 373 429 22,000 -397 Level Washington Center
Fri 02:20:58 PM 36.5256 -77.5769 236° Southwest 373 429 21,200 -1,050 Descending Washington Center
Fri 02:21:57 PM 36.4697 -77.6789 236° Southwest 367 422 19,900 -1,100 Descending Washington Center
Fri 02:22:58 PM 36.4219 -77.7731 238° Southwest 362 417 19,000 -454 Descending Washington Center
Fri 02:23:56 PM 36.3700 -77.8750 238° Southwest 362 417 19,000  Level Washington Center
Fri 02:25:22 PM 36.2878 -78.0219 235° Southwest 343 395 19,000 -246 Level Washington Center
Fri 02:25:58 PM 36.2639 -78.0703 239° Southwest 362 417 18,500 -1,182 Descending Washington Center
Fri 02:26:28 PM 36.2272 -78.1358 235° Southwest 348 400 17,700 -1,200 Descending Washington Center
Fri 02:26:58 PM 36.2056 -78.1739 235° Southwest 362 417 17,300 -1,164 Descending Washington Center
Fri 02:27:35 PM 36.1683 -78.2447 237° Southwest 353 406 16,400 -1,448 Descending Washington Center
Fri 02:27:56 PM 36.1467 -78.2800 233° Southwest 362 417 15,900 -1,102 Descending Washington Center
Fri 02:28:24 PM 36.1250 -78.3178 235° Southwest 347 399 15,500 -1,082 Descending Washington Center
Fri 02:28:57 PM 36.0886 -78.3578 222° Southwest 352 405 14,800 -1,273 Descending Washington Center
Fri 02:29:30 PM 36.0478 -78.4103 226° Southwest 333 383 14,100 -1,300 Descending Washington Center
Fri 02:29:57 PM 36.0178 -78.4450 223° Southwest 339 390 13,500 -1,200 Descending Washington Center
Fri 02:30:25 PM 35.9856 -78.4850 225° Southwest 335 386 13,000 -1,082 Descending Washington Center
Fri 02:30:58 PM 35.9594 -78.5225 229° Southwest 339 390 12,400 -1,000 Descending Washington Center
Fri 02:31:25 PM 35.9189 -78.5672 222° Southwest 338 389 12,000 -414 Descending Washington Center
Fri 02:31:56 PM 35.8928 -78.6022 227° Southwest 344 396 12,000  Level Washington Center
Fri 02:32:32 PM 35.8497 -78.6542 224° Southwest 328 377 12,000  Level Washington Center
Fri 02:32:56 PM 35.8283 -78.6792 223° Southwest 339 390 12,000  Level Washington Center
Fri 02:33:27 PM 35.7897 -78.7236 223° Southwest 321 369 12,000  Level Washington Center
Fri 02:33:57 PM 35.7614 -78.7636 229° Southwest 323 372 12,000  Level Washington Center
Fri 02:34:22 PM 35.7292 -78.7956 219° Southwest 319 367 12,000 -492 Level Washington Center
Fri 02:34:58 PM 35.7033 -78.8328 229° Southwest 318 366 11,500 -1,500 Descending Washington Center
Fri 02:35:22 PM 35.6667 -78.8722 221° Southwest 316 364 10,500 -1,759 Descending Washington Center
Fri 02:35:56 PM 35.6386 -78.9094 227° Southwest 318 366 9,800 -1,453 Descending Washington Center
Fri 02:36:57 PM 35.5825 -78.9761 224° Southwest 313 360 8,200 -1,587 Descending Washington Center
Fri 02:37:57 PM 35.5306 -79.0378 224° Southwest 285 328 6,600 -1,831 Descending Washington Center
Fri 02:38:55 PM 35.4767 -79.0992 223° Southwest 254 292 4,600 -1,300 Descending Washington Center
Fri 02:39:57 PM 35.4269 -79.1581 224° Southwest 248 285 4,000 3,148 Descending Washington Center
Fri 02:40:57 PM 35.3792 -79.2144 224° Southwest 248 285 11,000 3,471 Climbing Washington Center
Fri 02:41:58 PM 35.3297 -79.2683 222° Southwest 248 285 11,000  Level Washington Center
Fri 02:42:58 PM 35.2908 -79.3122 223° Southwest 248 285 11,000  Level Washington Center

Login

Don't have an account? Register now (free) for customized features, flight alerts, and more!